CDT,Max TemperatureF,Mean TemperatureF,Min TemperatureF,Max Dew PointF,MeanDew PointF,Min DewpointF,Max Humidity, Mean Humidity, Min Humidity, Max Sea Level PressureIn, Mean Sea Level PressureIn, Min Sea Level PressureIn, Max VisibilityMiles, Mean VisibilityMiles, Min VisibilityMiles, Max Wind SpeedMPH, Mean Wind SpeedMPH, Max Gust SpeedMPH,PrecipitationIn, CloudCover, Events, WindDirDegrees
2012-9-1,92,82,72,74,72,69,94,73,52,30.08,29.99,29.89,10,9,1,30,12,43,0.58,6,Rain-Thunderstorm,198
2012-9-2,89,80,71,76,72,70,94,77,59,29.99,29.90,29.81,10,8,1,20,8,25,2.24,7,Rain-Thunderstorm,237
2012-9-3,89,80,71,73,72,70,100,80,59,29.88,29.86,29.82,10,10,10,16,6,21,0.00,5,,272
2012-9-4,92,81,69,75,71,68,100,78,56,29.92,29.87,29.84,10,7,0,8,3,,0.00,1,Fog,12
2012-9-5,97,84,70,75,71,68,93,73,52,29.92,29.87,29.77,10,8,1,14,7,45,0.60,0,Rain,133
2012-9-6,92,80,68,77,69,66,97,78,59,30.00,29.93,29.87,10,8,2,10,3,13,0.35,3,Rain-Thunderstorm,104
2012-9-7,93,80,67,75,70,66,100,76,52,29.95,29.87,29.74,10,9,2,35,6,45,0.69,2,Rain-Thunderstorm,212
2012-9-8,77,66,55,70,61,53,93,68,43,30.01,29.91,29.79,10,10,7,23,9,28,0.06,4,Rain,332
2012-9-9,82,67,51,58,54,51,100,67,34,30.10,30.04,29.99,10,10,10,10,3,15,0.00,0,,336
2012-9-10,81,67,53,62,56,52,97,70,42,30.18,30.13,30.09,10,10,10,10,2,14,0.00,0,,56
2012-9-11,84,69,54,61,57,54,93,67,40,30.20,30.15,30.12,10,10,6,9,3,15,0.00,1,,170
2012-9-12,82,72,61,64,61,58,97,73,49,30.25,30.19,30.15,10,10,10,12,3,18,0.00,3,,157
2012-9-13,78,71,64,68,64,58,93,77,60,30.25,30.20,30.15,10,10,5,12,3,17,0.12,4,Rain,78
2012-9-14,82,72,62,68,65,61,100,79,58,30.25,30.21,30.17,10,10,4,12,3,14,0.00,3,,22
2012-9-15,82,73,64,68,65,63,100,77,54,30.23,30.18,30.10,10,6,2,10,4,12,0.00,5,,42
2012-9-16,83,75,67,69,67,66,100,79,58,30.09,30.04,29.98,10,8,4,12,2,15,0.07,7,Rain,179
2012-9-17,73,70,66,70,67,66,100,90,79,29.99,29.87,29.77,10,6,2,8,2,9,0.72,8,Rain,33
2012-9-18,72,61,49,67,59,45,93,66,38,30.08,29.86,29.76,10,7,1,21,9,26,0.10,5,Rain,325
2012-9-19,74,59,44,52,46,40,100,66,31,30.19,30.12,30.08,10,10,10,8,1,12,0.00,0,,136
2012-9-20,80,63,45,58,51,44,93,65,36,30.11,30.05,29.99,10,10,10,12,4,15,0.00,0,,199
2012-9-21,81,67,52,62,56,51,100,71,42,30.12,29.97,29.89,10,10,8,16,7,22,0.05,1,Rain,201
2012-9-22,83,70,56,59,52,44,93,60,26,30.16,30.04,29.92,10,10,10,14,6,18,0.00,0,,296
2012-9-23,72,59,46,46,42,38,86,58,29,30.27,30.23,30.17,10,10,10,13,4,17,0.00,0,,31
2012-9-24,74,57,40,53,45,39,96,65,33,30.27,30.18,30.06,10,10,10,12,3,16,0.00,0,,162
2012-9-25,83,73,62,66,55,49,73,67,60,30.10,30.04,29.98,10,10,10,13,10,17,0.00,0,,183
2012-9-26,84,75,65,68,65,62,81,68,55,30.12,30.08,30.05,10,10,10,12,7,,0.00,2,,174
2012-9-27,85,74,62,67,64,61,93,72,51,30.16,30.10,30.04,10,10,10,10,2,14,T,1,,203
2012-9-28,83,74,64,70,65,64,100,81,62,30.11,30.06,30.02,10,6,1,14,2,16,0.02,1,,360
2012-9-29,78,68,58,66,58,50,93,66,39,30.06,30.02,29.95,10,10,6,10,5,14,0.00,2,,30
2012-9-30,67,61,55,62,58,54,97,85,73,29.95,29.87,29.77,10,8,4,10,3,15,0.35,3,Rain,75